Showing default

SERVIS 2, 36588

Orbit data source: Space-Track

SERVIS 2, 36588 is a payload satellite owned by USEF (JP) in SSO that was launched on Wed, 02 Jun 2010 UTC via an ROKOT launch vehicle from the Plesetsk Missile And Space Complex (PKMTR). Payloads include a variety of satellites, spacecraft, and rockets equipped with specific instruments for various scientific and technological missions. These include communications satellites like Starlink; space stations such as the ISS; scientific satellites like the Hubble; Earth observation satellites from companies like Planet Labs, Umbra, and HawkEye 360; GPS; miniature CubeSats for education and research; and military/defense satellites.

Loading next visibility...
SERVIS 2 details
Identifier
36588, 2010-023A
Orbit
SSO
Last TLE update11 hours ago
Origin
Flag of JPUSEF (JP / JPN)
ManufacturerMELCO
MissionCommercial Technology
Bus & MotorSERVIS, Unknown motor
Mass740 kg wet, ~700 kg dry
Launch date (UTC)
2010-06-02 (15 years ago)
Launch vehicle
ROKOT
Launch site
Plesetsk Missile And Space Complex (PKMTR)
Object type
Payload
Rocket body
Debris
Shape & HBRBox + 2 Pan, 10.2 m
Radar Cross Section8.092 m², Large (>1 m²)

Expand to show TLE details & history

TLE from 11 hours ago
0 SERVIS 2
1 36588U 10023A   24361.13940095  .00000004  00000-0  12740-3 0  9994
2 36588 100.4242 185.6483 0017641  61.8102  50.7432 13.16008671699993
Epoch: 2024-12-26T03:20Z
Definitive object data (Epoch: 2024-12-26T03:20:44.242Z)
Latitude65.21302°
Longitude-116.30765°
Altitude1,202.702 km
Speed7.263 km/s
True Right ascension01h 55m 59s
True Declination65° 05' 22"
Sunlit
Object was in daylight at TLE epoch
Visualization TLE readout
Latitude25.12892°
Longitude-134.27606°
Altitude1,203.709 km
Speed7.254 km/s
Apparent Right ascension01h 12m 23s
Apparent Declination-4° 15' 46"
Sunlit
Object is in daylight
Visualization observer readout
Local Sidereal Time13:52:06
Azimuth16.699° NNE
Elevation-53.235°
Doppler factor1
Orbital elements
Apogee altitude1,210.753 km
Perigee altitude1,184.025 km
Semi-major axis7,575.526 km
Eccentricity0.0017641
Inclination100.4242°
RAAN185.6483°
Arg. of periapsis61.8102°
True anomaly50.89995°
Mean anomaly50.7432°
Eccentric anomaly50.82155°
Mean motion3.29173 °/min
BSTAR0.0001274
Orbital period109.37 mins
Loading maneuver chart data...
Loading historical data...
Loading historical data...
Loading historical data...
Loading historical data...
Loading historical data...
Loading historical data...
Loading historical data...
Other satellites on launch #23 in the year 2010 (2010-06-02 UTC)

SERVIS 2 Visibility forecast

Observer location: undefined°, undefined

Span
Click to sort rows by Start time (UTC) header in descending order
Start Az.
Max El. time (UTC)
Max El. Az.
Max El.
End time (UTC)
End Az.
12 mins2024-12-27 01:17:15.775Z22.05° NNE2024-12-27 01:22:15.775Z75.389° E43.233°2024-12-27 01:29:15.775Z188.246° SSW
8 mins2024-12-27 03:06:15.775Z338.301° N2024-12-27 03:09:15.775Z308.09° NW20.889°2024-12-27 03:14:15.775Z258.991° W
11 mins2024-12-27 11:45:15.775Z134.719° SE2024-12-27 11:50:15.775Z64.917° ENE38.092°2024-12-27 11:56:15.775Z355.956° N
10 mins2024-12-27 13:33:15.775Z212.396° SW2024-12-27 13:38:15.775Z266.364° W25.915°2024-12-27 13:43:15.775Z317.867° NNW
|